Regional Weather Roundup
Issued by NWS

Home | Current Version | Previous Version | Text Only | Print | Product List | Glossary On
Versions: 1 2 3 4 5 6 7 8 9 10 11 12 13 14 15 16 17 18 19 20 21 22 23 24 25 26 27 28 29 30 31 32 33 34 35 36 37 38 39 40 41 42 43 44 45 46 47 48 49 50
000
ASUS44 KFWD 210903
RWRTX
NORTH TEXAS HOURLY WEATHER ROUNDUP
NATIONAL WEATHER SERVICE FORT WORTH TX
400 AM CDT SAT APR 21 2018

NOTE: "FAIR" INDICATES FEW OR NO CLOUDS BELOW 12,000 FEET WITH NO
SIGNIFICANT WEATHER AND/OR OBSTRUCTIONS TO VISIBILITY.

TXZ118-119-211000-
DALLAS/FORT WORTH METROPLEX

CITY           SKY/WX    TMP DP  RH WIND       PRES   REMARKS
DFW AIRPORT    MOCLDY    58  46  64 S9        30.05F
DALLAS LOVE    CLOUDY    59  47  64 SE8       30.07S
FTW MEACHAM    MOCLDY    59  47  64 SE14      30.04F
DAL-EXECUTIVE  CLOUDY    57  46  66 SE5       30.07R
FTW-ALLIANCE   FAIR      58  46  64 SE9       30.05F
FTW-NAS-JRB    FAIR      59  45  59 SE10      30.05F
FTW-SPINKS     MOCLDY    56  46  69 SE6       30.07F
ARLINGTON      CLOUDY    58  47  66 SE13      30.06F
GRAND PRAIRIE  FAIR      57  45  64 E5        30.08S
ADDISON        CLOUDY    57  46  67 SE6       30.09S
MESQUITE       FAIR      52  45  76 E3        30.09R
LANCASTER      CLOUDY    53  45  74 CALM      30.09R
$$

TXZ091>094-102>105-117-120-121-131>134-211000-
NORTH CENTRAL TEXAS

CITY           SKY/WX    TMP DP  RH WIND       PRES   REMARKS
SHRMAN/DENISON CLOUDY    56  45  65 SE7       30.09S
GAINESVILLE    FAIR      54  45  71 SE10      30.07F
BOWIE          CLOUDY    56  45  66 SE12G20   29.99F
BRIDGEPORT     MOCLDY    57  45  64 SE9G17    30.02F
DECATUR        CLOUDY    56  45  65 SE14      30.02F
DENTON         MOCLDY    57  47  69 SE13      30.05F
MCKINNEY       CLOUDY    56  48  74 SE5       30.08F
BONHAM         CLOUDY    52  44  74 E7        30.10F
ROCKWALL       FAIR      52  46  79 MISG      30.08S
TERRELL        FAIR      51  45  79 NE7       30.09S
WAXAHACHIE     CLOUDY    55  48  77 CALM      30.10R
CLEBURNE       CLOUDY    57  48  72 SE10      30.07F
GRANBURY       CLOUDY    58  47  66 SE9       30.05F
$$

TXZ083>090-098>101-113>116-127>130-139>142-154-155-211000-
WESTERN NORTH TEXAS

CITY           SKY/WX    TMP DP  RH WIND       PRES   REMARKS
WICHITA FALLS  LGT RAIN  55  46  71 S16G25    29.97S
WF-KICKAPOO    LGT RAIN  55  48  78 S16G24    29.98S
VERNON           N/A     59  46  62 SE12      29.96R
ABILENE        CLOUDY    57  50  77 S25G32    29.93F
ABILENE-DYESS  CLOUDY    58  48  70 SE23G36   29.90F
GRAHAM           N/A     56  47  71 SE9G21    29.96F
BRECKENRIDGE   CLOUDY    59  46  62 SE17G25   29.96F
CISCO          CLOUDY    57  48  72 SE21G30   29.97F
EASTLAND       CLOUDY    55  47  72 SE15G22   29.98F
RANGER         CLOUDY    55  48  79 SE16      30.00F
MINERAL WELLS  MOCLDY    56  45  66 SE15      29.99F
STEPHENVILLE   FAIR      52  48  87 SE8       30.04F
COMANCHE       DRIZZLE   54  51  90 SE14      30.01F
BROWNWOOD      CLOUDY    55  48  76 SE12G17   30.00S
COLEMAN        CLOUDY    57  49  74 SE14      29.98F
BRADY          CLOUDY    54  54 100 SE8       29.98F FOG
$$

TXZ143>147-156>162-174-175-211000-
CENTRAL TEXAS

CITY           SKY/WX    TMP DP  RH WIND       PRES   REMARKS
WACO           CLOUDY    55  48  77 NE6       30.05S
WACO-MCGREGOR  CLOUDY    55  48  77 NE8       30.04F
HILLSBORO      CLOUDY    56  50  81 E3        30.07S
CORSICANA      FAIR      53  48  83 E6        30.07F
MEXIA          MOCLDY    52  47  82 CALM      30.05R
HEARNE         CLOUDY    57  51  80 E6        30.01F
CAMERON        CLOUDY    56  51  82 E5        30.00F
TEMPLE         CLOUDY    56  51  84 E6        30.02S
KILLEEN        LGT RAIN  57  50  77 E5        30.03R
KILLEEN-SKYLRK LGT RAIN  56  52  86 E5        30.03R
FORT HOOD      CLOUDY    55  52  87 E6        29.99R
GATESVILLE     CLOUDY    55  50  82 CALM      30.06R
HAMILTON       CLOUDY    54  54 100 E8        30.04F
LAMPASAS       CLOUDY    55  52  89 E6        30.02R
$$

TXZ095>097-106>112-122>126-135>138-148>153-164>167-211000-
EAST TEXAS

CITY           SKY/WX    TMP DP  RH WIND       PRES   REMARKS
PARIS          LGT RAIN  51  42  71 E7        30.12S
SULPHUR SPRNGS FAIR      52  45  76 E3        30.12S
MOUNT PLEASANT FAIR      53  43  69 E3        30.13R
GILMER         FAIR      51  43  73 CALM      30.10S
MINEOLA        FAIR      48  46  93 CALM      30.09S
TYLER          FAIR      54  46  74 E7        30.07F
LONGVIEW       FAIR      52  47  83 E6        30.09F
MARSHALL       FAIR      51  42  72 E3        30.13S
ATHENS         FAIR      52  45  76 CALM      30.06F
PALESTINE      FAIR      54  48  80 E8        30.07F
JACKSONVILLE   FAIR      51  47  87 E3        30.08F
HENDERSON      FAIR      52  46  79 E5        30.10F
CENTER         FAIR      51  49  90 CALM      30.11S
NACOGDOCHES      N/A     55  48  77 E5        30.09S
LUFKIN         FAIR      54  49  83 E3        30.07F
$$

SUPPLEMENTAL OBSERVATIONS (NWS FORT WORTH AREA)

CITY           SKY/WX    TMP DP  RH WIND       PRES   REMARKS
$$

SUPPLEMENTAL OBSERVATIONS (NWS NORMAN AREA)

CITY           SKY/WX    TMP DP  RH WIND       PRES   REMARKS
GOODLETT         N/A     59  45  60 SE12      29.94S
ODELL            N/A     56  48  76 SE12      29.97S
CROWELL          N/A     58  47  66 SE16      29.95S
KNOX CITY        N/A     59  48  68 SE13      29.94F
SEYMOUR          N/A     58  44  59 SE15G22   29.95F
$$

SUPPLEMENTAL OBSERVATIONS (NWS SAN ANGELO AREA)

CITY           SKY/WX    TMP DP  RH WIND       PRES   REMARKS
WEINERT          N/A     58  46  64 SE14      29.97R
HASKELL        LGT RAIN  59  48  67 SE10      29.95R
THROCKMORTON     N/A     58  47  66 SE12G20   29.96S
STAMFORD         N/A     60  50  69 SE14      29.95R
CLYDE            N/A     57  50  78 SE14      29.96F
$$

SUPPLEMENTAL OBSERVATIONS (NWS SHREVEPORT AREA)

CITY           SKY/WX    TMP DP  RH WIND       PRES   REMARKS
$$

SUPPLEMENTAL OBSERVATIONS ARE A COLLECTION OF AUTOMATED INSTRUMENTS
THAT ARE MAINTAINED BY A VARIETY OF FEDERAL AND STATE AGENCIES.
CERTAIN ELEMENTS...SUCH AS HUMIDITY VALUES AND SUSTAINED WIND
SPEEDS...MAY BE APPROXIMATED.




USA.gov is the U.S. government's official web portal to all federal, state and local government web resources and services.